Flag for Germany Weather past 2 weeks in Gorleben, Lower Saxony, Germany

Now
45 °F

Overcast.


Feels Like: 45 °F
Forecast: 36 / 52 °F
Wind: 1 mph from Northwest

Location: Marnitz

Current Time: Apr 27, 2015 at 10:45:00 PM

Latest Report: Apr 27, 2015 at 10:00 PM


Visibility: 44 mi

Pressure: 29.76 "Hg

Humidity: 82%

Dew point: 40 °F

Location of GorlebenLocation

Historic Weather in Gorleben — Graph

°F

Gorleben temperature yesterday

Maximum temperature yesterday: 63 °F (at 4:00 PM)
Minimum temperature yesterday: 49 °F (at 6:00 AM)
Average temperature yesterday: 54 °F

Past Weeks' High & Low Weather Summary

 TemperatureHumidityPressure
High71 °F (Apr 15, 3:00 PM)100% (Apr 18, 6:00 AM)30.37 "Hg (Apr 18, 6:00 AM)
Low31 °F (Apr 18, 6:00 AM)25% (Apr 21, 1:00 PM)29.64 "Hg (Apr 27, 6:00 AM)
Average49 °F70%30.05 "Hg
* Reported Apr 12 9:00 PM — Apr 27 9:00 PM, Gorleben, Weather by CustomWeather, © 2015

Note: Actual official high and low records may vary slightly from our data, if they occured in-between our weather recording intervals... More about our weather records

Advertising

Gorleben weather history for previous 24 hours

 ConditionsComfort  
Time TempWeatherWind HumidityBarometerVisibility
9:00 PM
Mon, Apr 27
46 °FOvercast.2 mph74%29.75 "Hg43 mi
8:00 PM47 °FOvercast.3 mph65%29.74 "Hg43 mi
7:00 PM48 °FOvercast.3 mph71%29.73 "Hg31 mi
6:00 PM48 °FOvercast.5 mph76%29.73 "Hg25 mi
5:00 PM49 °FOvercast.6 mph73%29.73 "Hg43 mi
4:00 PM48 °FOvercast.6 mph78%29.72 "Hg40 mi
3:00 PM47 °FLight rain. Overcast.6 mph86%29.72 "Hg28 mi
2:00 PM46 °FLight freezing rain. Low clouds.5 mph92%29.71 "Hg11 mi
1:00 PM46 °FLight rain. Low clouds.6 mph94%29.69 "Hg7 mi
12:00 PM46 °FLight freezing rain. Low clouds.5 mph95%29.68 "Hg8 mi
11:00 AM45 °FLight rain. Low clouds.5 mph96%29.66 "Hg9 mi
10:00 AM45 °FLight rain. Low clouds.5 mph97%29.65 "Hg6 mi
9:00 AM44 °FRain. Low clouds.5 mph99%29.65 "Hg3 mi
8:00 AM45 °FLight rain. Low clouds.5 mph99%29.65 "Hg2 mi
7:00 AM45 °FLight rain. Low clouds.3 mph99%29.65 "Hg3 mi
6:00 AM46 °FLight rain. Low clouds.3 mph99%29.64 "Hg2 mi
5:00 AM46 °FLight freezing rain. Low clouds.3 mph99%29.65 "Hg1 mi
4:00 AM47 °FLight rain. Low clouds.2 mph99%29.66 "Hg2 mi
3:00 AM47 °FLow clouds.2 mph99%29.67 "Hg3 mi
2:00 AM48 °FDrizzle. Low clouds.2 mph100%29.69 "Hg1 mi
1:00 AM49 °FDrizzle. Low clouds.1 mph100%29.69 "Hg1 mi
12:00 AM49 °FFog.1 mph97%29.70 "Hg4 mi
11:00 PM
Sun, Apr 26
50 °FLow clouds.3 mph97%29.69 "Hg5 mi
10:00 PM50 °FFog.1 mph97%29.69 "Hg3 mi
Weather by CustomWeather, © 2015

See weather overviewHow to use our weather pages